TimeEST,TemperatureF,Dew PointF,Humidity,Sea Level PressureIn,VisibilityMPH,Wind Direction,Wind SpeedMPH,Gust SpeedMPH,PrecipitationIn,Events,Conditions,WindDirDegrees,DateUTC
12:15 AM,44.6,42.8,93,30.16,10.0,ENE,5.8,-,N/A,,Overcast,60,2013-01-03 05:15:00
12:35 AM,44.6,42.8,93,30.16,10.0,East,5.8,-,N/A,,Overcast,80,2013-01-03 05:35:00
12:55 AM,44.6,42.8,93,30.15,10.0,ENE,5.8,-,N/A,,Overcast,60,2013-01-03 05:55:00
1:15 AM,44.6,42.8,93,30.14,7.0,ENE,8.1,-,N/A,,Overcast,60,2013-01-03 06:15:00
1:35 AM,44.6,42.8,93,30.13,7.0,ENE,8.1,-,N/A,,Overcast,70,2013-01-03 06:35:00
1:55 AM,44.6,42.8,93,30.13,7.0,ENE,4.6,-,N/A,,Overcast,70,2013-01-03 06:55:00
2:15 AM,44.6,42.8,93,30.14,7.0,ENE,4.6,-,N/A,,Overcast,70,2013-01-03 07:15:00
2:35 AM,44.6,42.8,93,30.14,7.0,ENE,4.6,-,N/A,,Overcast,60,2013-01-03 07:35:00
2:55 AM,44.6,42.8,93,30.14,7.0,NE,5.8,-,N/A,,Overcast,40,2013-01-03 07:55:00
3:15 AM,44.6,42.8,93,30.14,7.0,NE,4.6,-,N/A,,Overcast,40,2013-01-03 08:15:00
3:35 AM,44.6,42.8,93,30.14,7.0,NE,6.9,-,N/A,,Overcast,50,2013-01-03 08:35:00
3:55 AM,42.8,42.8,100,30.15,7.0,NNE,3.5,-,N/A,,Overcast,30,2013-01-03 08:55:00
4:15 AM,42.8,42.8,100,30.15,7.0,NE,4.6,-,N/A,,Overcast,50,2013-01-03 09:15:00
4:35 AM,42.8,42.8,100,30.15,7.0,NE,3.5,-,N/A,,Overcast,40,2013-01-03 09:35:00
4:55 AM,42.8,41.0,93,30.14,7.0,NE,6.9,-,N/A,,Overcast,50,2013-01-03 09:55:00
5:15 AM,42.8,41.0,93,30.14,7.0,ENE,3.5,-,N/A,,Overcast,70,2013-01-03 10:15:00
5:35 AM,42.8,41.0,93,30.15,7.0,ENE,4.6,-,N/A,,Light Drizzle,60,2013-01-03 10:35:00
5:55 AM,42.8,42.8,100,30.17,7.0,NE,4.6,-,N/A,Rain,Light Rain,50,2013-01-03 10:55:00
6:15 AM,42.8,42.8,100,30.17,7.0,Calm,Calm,-,N/A,Rain,Light Rain,0,2013-01-03 11:15:00
6:35 AM,42.8,42.8,100,30.17,5.0,NE,5.8,-,0.01,Rain,Light Rain,40,2013-01-03 11:35:00
6:55 AM,42.8,42.8,100,30.17,5.0,NE,4.6,-,0.01,Rain,Light Rain,40,2013-01-03 11:55:00
7:15 AM,42.8,42.8,100,30.18,5.0,NE,4.6,-,N/A,Rain,Light Rain,40,2013-01-03 12:15:00
7:55 AM,42.8,42.8,100,30.18,5.0,ENE,4.6,-,0.01,Rain,Light Rain,60,2013-01-03 12:55:00
8:15 AM,42.8,42.8,100,30.18,5.0,ENE,4.6,-,N/A,,Light Drizzle,70,2013-01-03 13:15:00
8:35 AM,42.8,42.8,100,30.19,4.0,East,3.5,-,N/A,Rain,Rain,100,2013-01-03 13:35:00
8:55 AM,42.8,42.8,100,30.18,4.0,ESE,4.6,-,N/A,,Overcast,110,2013-01-03 13:55:00
9:15 AM,42.8,41.0,93,30.20,5.0,ESE,5.8,-,N/A,Rain,Rain,110,2013-01-03 14:15:00
9:35 AM,42.8,41.0,93,30.20,5.0,ESE,3.5,-,N/A,,Overcast,120,2013-01-03 14:35:00
9:55 AM,42.8,42.8,100,30.20,4.0,SE,4.6,-,N/A,Rain,Light Rain,130,2013-01-03 14:55:00
10:15 AM,42.8,42.8,100,30.19,4.0,East,5.8,-,N/A,,Light Drizzle,100,2013-01-03 15:15:00
10:35 AM,42.8,42.8,100,30.20,5.0,East,4.6,-,N/A,,Light Drizzle,90,2013-01-03 15:35:00
10:55 AM,42.8,42.8,100,30.20,5.0,East,4.6,-,N/A,,Overcast,100,2013-01-03 15:55:00
11:15 AM,42.8,42.8,100,30.20,5.0,NNE,6.9,-,N/A,,Overcast,20,2013-01-03 16:15:00
11:35 AM,42.8,42.8,100,30.19,5.0,NE,5.8,-,N/A,,Overcast,50,2013-01-03 16:35:00
11:55 AM,42.8,41.0,93,30.20,5.0,North,6.9,-,N/A,,Overcast,10,2013-01-03 16:55:00
12:15 PM,42.8,41.0,93,30.20,5.0,North,5.8,-,N/A,,Overcast,10,2013-01-03 17:15:00
12:35 PM,42.8,41.0,93,30.19,5.0,North,3.5,-,N/A,,Overcast,10,2013-01-03 17:35:00
12:55 PM,42.8,41.0,93,30.16,5.0,East,4.6,-,N/A,,Overcast,90,2013-01-03 17:55:00
1:15 PM,42.8,41.0,93,30.17,5.0,Calm,Calm,-,N/A,,Overcast,0,2013-01-03 18:15:00
1:35 PM,42.8,41.0,93,30.17,5.0,North,6.9,-,N/A,,Overcast,10,2013-01-03 18:35:00
1:55 PM,42.8,39.2,87,30.18,5.0,North,5.8,-,N/A,,Overcast,10,2013-01-03 18:55:00
2:15 PM,42.8,41.0,93,30.17,5.0,North,4.6,-,N/A,,Overcast,10,2013-01-03 19:15:00
2:35 PM,42.8,39.2,87,30.16,7.0,NNE,4.6,-,N/A,,Overcast,30,2013-01-03 19:35:00
2:55 PM,42.8,39.2,87,30.16,7.0,NE,4.6,-,N/A,,Overcast,40,2013-01-03 19:55:00
3:15 PM,42.8,39.2,87,30.18,7.0,North,5.8,-,N/A,,Overcast,350,2013-01-03 20:15:00
3:35 PM,42.8,39.2,87,30.18,7.0,North,5.8,-,N/A,,Overcast,10,2013-01-03 20:35:00
4:15 PM,42.8,39.2,87,30.18,7.0,North,3.5,-,N/A,,Overcast,360,2013-01-03 21:15:00
4:35 PM,42.8,39.2,87,30.18,7.0,NNE,5.8,-,N/A,,Overcast,20,2013-01-03 21:35:00
5:15 PM,42.8,39.2,87,30.20,7.0,North,3.5,-,N/A,,Overcast,10,2013-01-03 22:15:00
5:35 PM,42.8,39.2,87,30.21,7.0,North,3.5,-,N/A,,Overcast,360,2013-01-03 22:35:00
5:55 PM,42.8,39.2,87,30.22,7.0,Calm,Calm,-,N/A,,Overcast,0,2013-01-03 22:55:00
6:15 PM,42.8,39.2,87,30.23,7.0,North,3.5,-,N/A,,Overcast,360,2013-01-03 23:15:00
6:35 PM,42.8,39.2,87,30.23,7.0,Calm,Calm,-,N/A,,Overcast,0,2013-01-03 23:35:00
7:15 PM,42.8,37.4,81,30.25,7.0,Calm,Calm,-,N/A,,Overcast,0,2013-01-04 00:15:00
7:35 PM,42.8,37.4,81,30.25,10.0,Calm,Calm,-,N/A,,Overcast,0,2013-01-04 00:35:00
7:55 PM,41.0,39.2,93,30.26,7.0,Calm,Calm,-,N/A,,Overcast,0,2013-01-04 00:55:00
8:15 PM,41.0,39.2,93,30.26,7.0,Calm,Calm,-,N/A,,Scattered Clouds,0,2013-01-04 01:15:00
8:35 PM,41.0,41.0,100,30.26,7.0,Calm,Calm,-,N/A,,Clear,0,2013-01-04 01:35:00
8:55 PM,41.0,41.0,100,30.26,7.0,Calm,Calm,-,N/A,,Clear,0,2013-01-04 01:55:00
9:15 PM,39.2,39.2,100,30.27,5.0,Calm,Calm,-,N/A,,Clear,0,2013-01-04 02:15:00
9:35 PM,37.4,37.4,100,30.28,4.0,Calm,Calm,-,N/A,,Clear,0,2013-01-04 02:35:00
10:15 PM,35.6,35.6,100,30.28,1.0,Calm,Calm,-,N/A,,Mist,0,2013-01-04 03:15:00
10:35 PM,35.6,35.6,100,30.29,0.5,Calm,Calm,-,N/A,Fog,Fog,0,2013-01-04 03:35:00
10:55 PM,35.6,35.6,100,30.28,0.2,Calm,Calm,-,N/A,Fog,Fog,0,2013-01-04 03:55:00
11:15 PM,33.8,33.8,100,30.29,0.5,Calm,Calm,-,N/A,Fog,Fog,0,2013-01-04 04:15:00
11:35 PM,33.8,33.8,100,30.29,0.2,Calm,Calm,-,N/A,Fog,Fog,0,2013-01-04 04:35:00
11:55 PM,33.8,33.8,100,30.29,0.5,Calm,Calm,-,N/A,Fog,Fog,0,2013-01-04 04:55:00